Regional Weather Roundup
Issued by NWS

Home | Current Version | Previous Version | Text Only | Print | Product List | Glossary On
Versions: 1 2 3 4 5 6 7 8 9 10 11 12 13 14 15 16 17 18 19 20 21 22 23 24 25 26 27 28 29 30 31 32 33 34 35 36 37 38 39 40 41 42 43 44 45 46 47 48 49 50
175
ASUS46 KSEW 201610
RWRWA

WASHINGTON REGIONAL WEATHER ROUNDUP
NATIONAL WEATHER SERVICE SEATTLE WA
800 AM PST FRI JAN 20 2017

NOTE:"FAIR" INDICATES FEW OR NO CLOUDS BELOW 12,000 FEET WITH NO
SIGNIFICANT WEATHER AND/OR OBSTRUCTIONS TO VISIBILITY.

WAZ507-509-555>559-201700-
SEATTLE, TACOMA, EVERETT, AND VICINITY

CITY           SKY/WX    TMP DP  RH WIND       PRES   REMARKS
EVERETT        PTCLDY    43  31  62 E7        29.17F
BOEING FIELD   MOCLDY    34  33  96 CALM      29.16F
RENTON         PTCLDY    37  35  92 NW5       29.15F
SEATAC AIRPORT MOCLDY    47  32  56 E10       29.15F
JBLM-MCCHORD   MOCLDY    32  32 100 CALM      29.13F
PUYALLUP         N/A     32  32 100 CALM      29.12F
BREMERTON      PTCLDY    37  36  93 NE9       29.17F
JBLM-FT LEWIS  CLOUDY    35  35  99 CALM      29.12F
TACOMA NARROWS MOCLDY    42  35  76 N8        29.13F
$$

WAZ001-503-506-510-514-515-201700-
NORTH INTERIOR

CITY           SKY/WX    TMP DP  RH WIND       PRES   REMARKS
BELLINGHAM     CLEAR     36  34  92 N8        29.21F
FRIDAY HARBOR  PTCLDY    37  34  89 CALM      29.20F
EASTSOUND      CLEAR     41  37  87 NE5       29.19F
PORT ANGELES   PTCLDY    36  36 100 SW5       29.17F FOG
EDIZ HOOK      FAIR      39  38  95 S3        29.18F
PORT TOWNSEND    N/A    N/A N/A N/A CALM      29.20
NAS WHIDBEY    PTCLDY    40  32  73 E6        29.23F
ARLINGTON      NOT AVBL
BURLINGTON     CLEAR     41  34  75 NE10      29.20F
$$

WAZ020-022-039-040-504-511-512-201700-
SOUTHWEST INTERIOR

CITY           SKY/WX    TMP DP  RH WIND       PRES   REMARKS
SHELTON        CLOUDY    40  36  86 N9        29.12F
OLYMPIA        MOCLDY    37  37 100 NE6       29.13F
CHEHALIS       FOG       34  34 100 CALM      29.12F VSB 1/4
KELSO          CLOUDY    35  34  96 SE3       29.14S
VANCOUVER      LGT RAIN  40  35  83 E7        29.10F
SCAPPOOSE, OR  LGT RAIN  38  36  92 CALM      29.13F
PORTLAND, OR   LGT RAIN  39  34  82 E14       29.10F
$$

WAZ021-516-517-201700-
WASHINGTON COAST

CITY           SKY/WX    TMP DP  RH WIND       PRES   REMARKS
FORKS          CLOUDY    41  39  93 NE12      29.10F
HOQUIAM        CLOUDY    42  39  89 E12       29.08F
ASTORIA, OR    LGT RAIN  46  35  65 SE10G20   29.05F
$$

WAZ019-023-024-040-567>569-201700-
CASCADE MOUNTAINS AND COLUMBIA GORGE

CITY           SKY/WX    TMP DP  RH WIND       PRES   REMARKS
STAMPEDE PASS  FOG       28  27  96 VRB5      29.18F VSB 1/2
TROUTDALE, OR  LGT RAIN  40  34  79 E23       29.13F
THE DALLES, OR CLOUDY    30  29  96 CALM      29.28F FOG
$$

WAZ026-027-041>044-520-521-201700-
EAST SLOPES

CITY           SKY/WX    TMP DP  RH WIND       PRES   REMARKS
OMAK           CLOUDY    33  30  88 NW3       29.39F FOG
WENATCHEE      CLOUDY    31  29  92 N5        29.37F FOG
ELLENSBURG     CLOUDY    31  28  89 CALM      29.29F
YAKIMA         CLOUDY    28  26  92 NW6       29.32F
$$

WAZ028-034-035-201700-
COLUMBIA BASIN

CITY           SKY/WX    TMP DP  RH WIND       PRES   REMARKS
EPHRATA        CLOUDY    33  27  78 N10       29.34F WCI  25
MOSES LAKE     MOCLDY    26  23  88 N10       29.34F WCI  16
PASCO          FOG       25  25 100 CALM      29.36F VSB<1/4
HERMISTON, OR  CLOUDY    30  28  92 N8        29.27F FOG
$$

WAZ036>038-201700-
NORTHEAST WASHINGTON

CITY           SKY/WX    TMP DP  RH WIND       PRES   REMARKS
SPOKANE GEIGER MOCLDY    29  28  96 NE10      29.37F FOG     WCI  20
SPOKANE FELTS  MOCLDY    30  29  96 NE3       29.39F
FAIRCHILD AFB  FOG       26  26 100 E12       29.35F VSB 1   WCI  16
COEURDALENE,ID CLOUDY    33  33 100 N14       29.40F WCI  23
DEER PARK      PTCLDY    32  30  92 N10       29.39F WCI  24
$$

WAZ029>033-201700-
SOUTHEAST WASHINGTON

CITY           SKY/WX    TMP DP  RH WIND       PRES   REMARKS
PULLMAN        PTCLDY    34  29  82 E21       29.36F WCI  22
LEWISTON, ID   CLEAR     32  29  88 SE6       29.38F
WALLA WALLA    PTCLDY    27  24  89 MISG      29.29F FOG
PENDLETON, OR  CLOUDY    42  30  62 SE15G25   29.26F
$$




USA.gov is the U.S. government's official web portal to all federal, state and local government web resources and services.